User: anonymous   Login
Location: Peebles
(55.6412°N, 3.1714°W)
Time: 03:28:39
(UTC+00:00)
Language:

CZ-4B R/B - Orbit

View from above orbital plane
View from above orbital plane
View from above satellite
View from above satellite

Ground track
Ground track

The orbit data is extracted from the following two-line orbital elements,

1 29093U 06015B   21333.87294803  .00009949  00000-0  16386-3 0  9996
2 29093  97.6225 175.8504 0047102 193.5912 166.4075 15.51265682868552
Epoch (UTC): 29 November 2021 20:57:02
Eccentricity: 0.0047102
inclination: 97.6225°
perigee height: 381 km
apogee height: 445 km
right ascension of ascending node: 175.8504°
argument of perigee: 193.5912°
revolutions per day: 15.51265682
mean anomaly at epoch: 166.4075°
orbit number at epoch: 86855

The dashed part of the orbit path shows where the satellite is in the earth's shadow,  

DLR